[[{"header":{"parameterUnit":"m.s-1","parameterCategory":1,"la1":30.2991,"la2":30.254,"lo1":-89.0895,"lo2":-89.0444,"dy":0.0017,"dx":0.0017,"nx":28,"ny":28,"refTime":"2023-04-28T21:00:00:Z","depth":0,"parameterNumber":2,"parameterNumberName":"U-component_of_WINDS"},"data":[0,0,0,0,0,0,0,0,0,0,0,0,0,0,0,0,0,0,0,0,0,0,0,0,0,0,0,0,0,0,0,0,0,0,0,0,0,0,0,0,0,0,0,0,0,0,0,0,0,0,0,0,0,0,0,0,0,0,-1.1128,-1.1129,0,-1.1175,-1.1175,-1.1176,-1.1175,-1.1174,-1.1173,-1.1173,-1.122,-1.1222,-1.1224,0,0,0,0,0,0,0,0,0,0,0,0,0,-1.1039,-1.104,-1.1128,-1.1129,-1.1129,-1.1175,-1.1175,-1.1176,-1.1175,-1.1174,-1.1173,-1.1172,-1.122,-1.1222,-1.1224,0,0,0,0,0,0,0,0,0,0,0,0,0,-1.108,-1.1041,-1.1128,-1.1134,-1.1135,-1.1174,-1.1175,-1.1176,-1.1175,-1.1174,-1.1173,-1.1172,-1.1219,-1.1221,-1.1224,-1.126,0,0,-1.1233,-1.1234,0,0,0,0,0,0,0,0,-1.1078,-1.1084,-1.1133,-1.1134,-1.1135,-1.1168,-1.1161,-1.1204,-1.1175,-1.116,-1.1173,-1.1172,-1.1203,-1.1207,-1.1218,-1.1262,-1.1264,-1.1233,-1.1235,-1.1236,-1.1237,0,0,0,0,0,0,0,-1.1075,-1.1082,-1.1147,-1.1134,-1.1135,-1.1135,-1.114,-1.1169,-1.1186,-1.1161,-1.1161,-1.1167,-1.1204,-1.1216,-1.1219,-1.1265,-1.1233,-1.1235,-1.1237,-1.1238,-1.1341,-1.1342,0,0,0,0,0,0,-1.1071,-1.1079,-1.1145,-1.1148,-1.1104,-1.1137,-1.1143,-1.1158,-1.1186,-1.1189,-1.1167,-1.1166,-1.1211,-1.1216,-1.1221,-1.1264,-1.1236,-1.1238,-1.124,-1.134,-1.1341,-1.1342,0,0,0,0,0,0,-1.1069,-1.1077,-1.1143,-1.1114,-1.1122,-1.114,-1.1157,-1.116,-1.1171,-1.1191,-1.1194,-1.1176,-1.1211,-1.1217,-1.125,-1.1266,-1.124,-1.1242,-1.1338,-1.134,-1.1341,-1.1352,0,0,0,0,0,0,-1.1067,-1.1076,-1.109,-1.1114,-1.1124,-1.1172,-1.1158,-1.1161,-1.1176,-1.1175,-1.12,-1.1203,-1.121,-1.1246,-1.1253,-1.1269,-1.1244,-1.1337,-1.1339,-1.1341,-1.135,-1.1353,-1.1356,0,0,0,0,0,-1.1063,-1.1091,-1.1091,-1.1099,-1.1141,-1.1173,-1.1178,-1.1186,-1.1177,-1.1191,-1.1204,-1.1202,-1.1263,-1.125,-1.1257,-1.1275,-1.1336,-1.1339,-1.1341,-1.1349,-1.1353,-1.1356,0,0,0,0,0,0,-1.1069,-1.1094,-1.1094,-1.1131,-1.115,-1.1173,-1.119,-1.1191,-1.1212,-1.1211,-1.122,-1.1225,-1.1259,-1.127,-1.1254,-1.1311,-1.1299,-1.1303,-1.1302,-1.1306,-1.1309,-1.1305,-1.1247,0,0,0,0,0,-1.1074,-1.1097,-1.1119,-1.1149,-1.1158,-1.1173,-1.1187,-1.1191,-1.1211,-1.1219,-1.1234,-1.1253,-1.1277,-1.1292,-1.1315,-1.1352,-1.1357,-1.1368,-1.1371,-1.1373,-1.1377,-1.1396,-1.1401,-1.135,-1.135,-1.135,0,0,-1.1085,-1.1102,-1.1117,-1.115,-1.1165,-1.1189,-1.118,-1.1205,-1.1223,-1.1223,-1.1255,-1.1267,-1.1289,-1.1324,-1.134,-1.1335,-1.1392,-1.1376,-1.1378,-1.138,-1.1399,-1.1404,-1.1408,-1.1352,-1.1351,-1.1351,0,0,-1.1118,-1.1134,-1.116,-1.1175,-1.1199,-1.1208,-1.1214,-1.1237,-1.1245,-1.1278,-1.1278,-1.1299,-1.134,-1.1355,-1.1369,-1.1407,-1.1406,-1.1415,-1.1431,-1.145,-1.1454,-1.1458,-1.1471,-1.1475,-1.1418,-1.1418,-1.1418,0,-1.1129,-1.1165,-1.1174,-1.1199,-1.1214,-1.1216,-1.1242,-1.1257,-1.1286,-1.1296,-1.129,-1.134,-1.1355,-1.1394,-1.1403,-1.1414,-1.1421,-1.1411,-1.1453,-1.1456,-1.146,-1.1472,-1.1477,-1.1419,-1.1419,-1.1419,-1.1418,0,-1.1177,-1.1202,-1.1221,-1.1249,-1.1266,-1.1292,-1.1304,-1.132,-1.1324,-1.1334,-1.1367,-1.1385,-1.1411,-1.1421,-1.1424,-1.146,-1.1455,-1.1451,-1.1439,-1.1465,-1.1477,-1.1482,-1.142,-1.142,-1.1419,-1.1419,0,0,-1.1214,-1.1246,-1.1253,-1.1266,-1.1291,-1.1311,-1.1337,-1.1363,-1.1376,-1.1396,-1.1418,-1.1452,-1.1448,-1.1463,-1.1469,-1.1486,-1.1514,-1.1479,-1.1479,-1.1484,-1.1553,-1.1556,-1.1561,-1.1514,-1.1515,-1.1516,-1.1551,0,-1.1248,-1.1295,-1.1303,-1.1344,-1.1366,-1.1368,-1.1391,-1.1409,-1.142,-1.144,-1.1452,-1.1475,-1.1469,-1.1478,-1.1495,-1.1507,-1.1528,-1.1505,-1.1534,-1.1535,-1.1527,-1.1568,-1.157,-1.1603,-1.1556,-1.1557,-1.1557,0,-1.1295,-1.1316,-1.1359,-1.1381,-1.1391,-1.1411,-1.1435,-1.1455,-1.1476,-1.1482,-1.1499,-1.1502,-1.1529,-1.1517,-1.1554,-1.1537,-1.155,-1.1558,-1.1559,-1.1562,-1.1547,-1.157,-1.1614,-1.1618,-1.1565,-1.1564,-1.1564,0,-1.1316,-1.1356,-1.1386,-1.1397,-1.1424,-1.1438,-1.145,-1.147,-1.1484,-1.1506,-1.1515,-1.1539,-1.1552,-1.1571,-1.158,-1.157,-1.1616,-1.1605,-1.1622,-1.1622,-1.1631,-1.163,-1.1676,-1.164,-1.164,-1.164,-1.164,0,-1.1353,-1.1379,-1.1396,-1.1414,-1.1443,-1.1453,-1.1481,-1.1493,-1.151,-1.1531,-1.1535,-1.1554,-1.1566,-1.1587,-1.1595,-1.1624,-1.163,-1.1636,-1.1637,-1.1635,-1.1634,-1.1642,-1.164,-1.1641,-1.1641,-1.1641,-1.1641,0,-1.1381,-1.1394,-1.1427,-1.145,-1.1456,-1.1476,-1.1496,-1.1514,-1.1524,-1.1551,-1.1557,-1.1574,-1.1599,-1.161,-1.1641,-1.1647,-1.1679,-1.168,-1.1672,-1.1673,-1.1689,-1.1687,-1.1741,-1.1749,-1.1709,-1.1709,-1.171,0,-1.1404,-1.1423,-1.1449,-1.1463,-1.1475,-1.1498,-1.1513,-1.1524,-1.1539,-1.1564,-1.1579,-1.1604,-1.1625,-1.1664,-1.1679,-1.1703,-1.1703,-1.1721,-1.1707,-1.1703,-1.1702,-1.1701,-1.1702,-1.1723,-1.1723,-1.1723,-1.1724,0,-1.1442,-1.1447,-1.1469,-1.1493,-1.151,-1.153,-1.1549,-1.156,-1.1574,-1.1591,-1.1617,-1.1633,-1.1664,-1.1689,-1.1714,-1.1726,-1.1727,-1.1728,-1.1733,-1.173,-1.1725,-1.1727,-1.1678,-1.1727,-1.1726,-1.1726,-1.1726,-1.1726,-1.1467,-1.1485,-1.1505,-1.1529,-1.1544,-1.1562,-1.158,-1.1593,-1.1614,-1.1641,-1.1646,-1.1673,-1.1693,-1.1726,-1.1739,-1.176,-1.1756,-1.1763,-1.1765,-1.1767,-1.1767,-1.1722,-1.1765,-1.1765,-1.1765,-1.1764,-1.1764,0,-1.1504,-1.1518,-1.154,-1.1566,-1.1585,-1.1585,-1.1606,-1.1622,-1.1645,-1.1664,-1.1684,-1.1713,-1.1737,-1.1754,-1.1778,-1.1792,-1.1793,-1.1798,-1.1796,-1.1799,-1.177,-1.1762,-1.1796,-1.1796,-1.1796,-1.1796,-1.1796,-1.1796,-1.1526,-1.1555,-1.1563,-1.16,-1.1613,-1.164,-1.1652,-1.1668,-1.1683,-1.1715,-1.1735,-1.1746,-1.1764,-1.1789,-1.1811,-1.1815,-1.1824,-1.1828,-1.1832,-1.1804,-1.1801,-1.1798,-1.1791,-1.183,-1.183,-1.186,-1.186,-1.186]},{"header":{"parameterUnit":"m.s-1","parameterCategory":1,"la1":30.2991,"la2":30.254,"lo1":-89.0895,"lo2":-89.0444,"dy":0.0017,"dx":0.0017,"nx":28,"ny":28,"refTime":"2023-04-28T21:00:00:Z","depth":0,"parameterNumber":3,"parameterNumberName":"V-component_of_WINDS"},"data":[0,0,0,0,0,0,0,0,0,0,0,0,0,0,0,0,0,0,0,0,0,0,0,0,0,0,0,0,0,0,0,0,0,0,0,0,0,0,0,0,0,0,0,0,0,0,0,0,0,0,0,0,0,0,0,0,0,0,-0.3028,-0.3029,0,-0.3074,-0.3074,-0.3075,-0.3106,-0.3106,-0.3106,-0.3107,-0.3154,-0.3155,-0.3156,0,0,0,0,0,0,0,0,0,0,0,0,0,-0.297,-0.2971,-0.3028,-0.3029,-0.303,-0.3074,-0.3074,-0.3075,-0.3106,-0.3106,-0.3106,-0.3107,-0.3154,-0.3155,-0.3156,0,0,0,0,0,0,0,0,0,0,0,0,0,-0.3003,-0.2971,-0.3028,-0.305,-0.3053,-0.3074,-0.3074,-0.3075,-0.3106,-0.3106,-0.3107,-0.3107,-0.3153,-0.3155,-0.3156,-0.3159,0,0,-0.3161,-0.3162,0,0,0,0,0,0,0,0,-0.3001,-0.3005,-0.3047,-0.3049,-0.3052,-0.3085,-0.3071,-0.3103,-0.3106,-0.3086,-0.3107,-0.3107,-0.3131,-0.3134,-0.3142,-0.3161,-0.3163,-0.3161,-0.3162,-0.3163,-0.3163,0,0,0,0,0,0,0,-0.2999,-0.3003,-0.3046,-0.3047,-0.305,-0.3058,-0.3063,-0.3077,-0.3106,-0.3087,-0.309,-0.3095,-0.3132,-0.314,-0.3143,-0.3164,-0.3161,-0.3162,-0.3163,-0.3164,-0.3188,-0.3188,0,0,0,0,0,0,-0.2993,-0.3001,-0.3045,-0.3048,-0.3027,-0.3059,-0.3065,-0.3074,-0.3106,-0.3111,-0.3094,-0.3096,-0.3137,-0.3141,-0.3145,-0.315,-0.3163,-0.3164,-0.3165,-0.3189,-0.3188,-0.3188,0,0,0,0,0,0,-0.2991,-0.2996,-0.3043,-0.3025,-0.3032,-0.306,-0.3069,-0.3074,-0.3083,-0.3111,-0.3116,-0.3097,-0.3138,-0.3143,-0.3155,-0.3152,-0.3165,-0.3166,-0.3189,-0.3189,-0.3188,-0.3161,0,0,0,0,0,0,-0.299,-0.2996,-0.2997,-0.3025,-0.3033,-0.3052,-0.3069,-0.3075,-0.3085,-0.3088,-0.3115,-0.312,-0.3138,-0.3153,-0.3157,-0.3155,-0.3168,-0.3189,-0.3189,-0.3188,-0.3162,-0.316,-0.3157,0,0,0,0,0,-0.2987,-0.2988,-0.2997,-0.3002,-0.3034,-0.3052,-0.3056,-0.3077,-0.3085,-0.3086,-0.3104,-0.3119,-0.3152,-0.3154,-0.3159,-0.3157,-0.319,-0.3189,-0.3188,-0.3163,-0.316,-0.3157,0,0,0,0,0,0,-0.2959,-0.2992,-0.3002,-0.3011,-0.3029,-0.3057,-0.306,-0.3073,-0.3089,-0.3091,-0.3117,-0.3123,-0.3132,-0.3146,-0.3147,-0.3162,-0.3173,-0.3173,-0.3152,-0.3149,-0.3147,-0.3143,-0.3169,0,0,0,0,0,-0.2953,-0.2965,-0.2993,-0.2998,-0.3007,-0.3032,-0.304,-0.3055,-0.3074,-0.3081,-0.31,-0.3119,-0.3133,-0.3142,-0.3157,-0.3165,-0.3171,-0.3166,-0.3163,-0.3161,-0.3161,-0.3166,-0.3164,-0.3186,-0.3186,-0.3186,0,0,-0.2943,-0.2962,-0.2968,-0.2993,-0.3008,-0.3019,-0.3038,-0.3049,-0.3057,-0.3083,-0.3096,-0.3111,-0.3133,-0.3143,-0.3148,-0.3154,-0.3157,-0.3161,-0.3159,-0.316,-0.3165,-0.3163,-0.3161,-0.3185,-0.3185,-0.3185,0,0,-0.2928,-0.2944,-0.295,-0.2965,-0.2988,-0.3005,-0.3006,-0.3033,-0.3043,-0.3057,-0.3076,-0.3087,-0.3112,-0.3126,-0.3137,-0.3129,-0.3143,-0.3133,-0.312,-0.3125,-0.3123,-0.3122,-0.3118,-0.3117,-0.3133,-0.3133,-0.3133,0,-0.2912,-0.2929,-0.2952,-0.2962,-0.2973,-0.2996,-0.3003,-0.3016,-0.3043,-0.305,-0.3056,-0.3087,-0.3104,-0.3118,-0.3116,-0.3124,-0.3126,-0.313,-0.3122,-0.312,-0.3119,-0.3117,-0.3115,-0.3132,-0.3132,-0.3132,-0.3132,0,-0.2908,-0.292,-0.2922,-0.2947,-0.2958,-0.2966,-0.299,-0.2999,-0.3013,-0.3029,-0.3042,-0.3063,-0.3082,-0.3087,-0.3101,-0.3102,-0.3106,-0.3117,-0.3128,-0.3116,-0.3113,-0.3112,-0.313,-0.313,-0.313,-0.3131,0,0,-0.2876,-0.2913,-0.2914,-0.2925,-0.2952,-0.2962,-0.2971,-0.299,-0.2997,-0.3015,-0.3023,-0.3043,-0.3054,-0.3066,-0.3082,-0.3086,-0.3078,-0.3096,-0.3097,-0.3092,-0.3081,-0.3072,-0.307,-0.3087,-0.3087,-0.3087,-0.3079,0,-0.2866,-0.2884,-0.2904,-0.2915,-0.2926,-0.2949,-0.2958,-0.2975,-0.2991,-0.3003,-0.302,-0.3034,-0.3047,-0.3054,-0.3059,-0.3077,-0.3076,-0.3078,-0.3095,-0.3096,-0.3088,-0.3069,-0.306,-0.3051,-0.3078,-0.3078,-0.3078,0,-0.2856,-0.2872,-0.2884,-0.291,-0.2915,-0.2922,-0.2941,-0.2952,-0.2973,-0.2984,-0.2997,-0.3014,-0.3026,-0.3036,-0.3052,-0.3054,-0.3062,-0.3072,-0.3073,-0.3074,-0.3086,-0.307,-0.3048,-0.3047,-0.3077,-0.3077,-0.3077,0,-0.2831,-0.2856,-0.2866,-0.2875,-0.2906,-0.291,-0.2923,-0.2944,-0.2954,-0.2971,-0.2977,-0.2995,-0.3005,-0.3019,-0.304,-0.3046,-0.3054,-0.3066,-0.3063,-0.3063,-0.3063,-0.3063,-0.3042,-0.307,-0.307,-0.307,-0.307,0,-0.2817,-0.2823,-0.2855,-0.2861,-0.2869,-0.2893,-0.29,-0.2915,-0.2934,-0.2943,-0.2965,-0.2973,-0.3001,-0.3014,-0.3031,-0.3041,-0.3046,-0.3055,-0.3059,-0.3052,-0.3051,-0.3058,-0.3059,-0.3069,-0.3069,-0.307,-0.307,0,-0.279,-0.2811,-0.2824,-0.2852,-0.2859,-0.2864,-0.2888,-0.2895,-0.2912,-0.2924,-0.2928,-0.2955,-0.297,-0.2993,-0.3015,-0.3027,-0.3035,-0.3042,-0.3027,-0.303,-0.3025,-0.3025,-0.3007,-0.3006,-0.3035,-0.3034,-0.3034,0,-0.2779,-0.2784,-0.2812,-0.282,-0.2833,-0.2845,-0.2855,-0.288,-0.289,-0.2913,-0.2918,-0.2935,-0.2949,-0.2973,-0.2995,-0.3012,-0.302,-0.3012,-0.3022,-0.3015,-0.3019,-0.3018,-0.3018,-0.301,-0.3009,-0.3009,-0.3008,0,-0.2757,-0.2767,-0.2781,-0.2799,-0.281,-0.2826,-0.2842,-0.2847,-0.2875,-0.2885,-0.2901,-0.2913,-0.2936,-0.2952,-0.2972,-0.2986,-0.3002,-0.3005,-0.3005,-0.2998,-0.2989,-0.2994,-0.302,-0.3005,-0.3006,-0.3006,-0.3006,-0.3006,-0.2737,-0.2743,-0.2764,-0.2778,-0.2793,-0.2808,-0.2816,-0.2834,-0.2847,-0.2868,-0.2881,-0.2896,-0.2917,-0.2946,-0.2959,-0.2972,-0.2978,-0.2978,-0.2978,-0.2978,-0.2975,-0.2988,-0.2975,-0.2976,-0.2976,-0.2976,-0.2976,0,-0.2716,-0.273,-0.2744,-0.2766,-0.2777,-0.2791,-0.281,-0.2819,-0.2832,-0.285,-0.2864,-0.2883,-0.2899,-0.2922,-0.294,-0.2945,-0.2953,-0.2949,-0.2949,-0.2952,-0.2969,-0.2966,-0.2943,-0.2943,-0.2943,-0.2943,-0.2943,-0.2943,-0.2706,-0.2716,-0.2729,-0.2747,-0.2762,-0.2777,-0.2786,-0.28,-0.2815,-0.2834,-0.2848,-0.2862,-0.2883,-0.2902,-0.2918,-0.2924,-0.293,-0.2924,-0.2932,-0.2947,-0.295,-0.2953,-0.2951,-0.2925,-0.2925,-0.2914,-0.2914,-0.2914]}]]